Wind_Speed
15 15 14 13 13 12 12 11 11 10 10 9 9 8 8 7 7 7 7 6 5 5 5 5 3 3 3 2 1 1 1 2 2 3 4 3 4 4 4 4 5 5 5
14 14 13 13 12 12 12 11 11 10 10 9 8 8 8 7 7 6 6 5 5 5 4 3 3 3 3 2 2 1 2 3 3 4 4 4 4 4 4 5 5 5 5
13 12 13 13 13 11 11 11 11 10 10 9 8 7 7 7 6 6 5 5 5 5 4 3 3 3 3 2 2 2 3 3 3 3 3 4 4 5 5 5 5 5 5
10 10 11 12 12 11 10 10 10 9 9 8 7 7 6 6 6 5 4 5 5 4 4 3 2 2 2 2 2 2 3 3 3 3 3 4 4 5 5 5 5 6 6
7 8 9 10 10 10 10 9 8 8 8 8 7 6 6 5 5 5 4 4 4 3 3 3 3 2 2 2 2 2 3 3 4 4 4 4 5 5 5 6 6 7 8
6 6 6 7 8 9 9 8 7 7 7 7 7 7 6 5 4 4 4 4 4 3 3 3 3 2 2 2 3 3 3 3 4 4 5 5 5 5 6 7 8 9 9
5 5 5 5 6 7 7 7 6 5 5 6 6 6 6 5 5 4 4 4 3 3 3 3 3 2 2 3 3 4 4 4 5 5 5 5 6 7 7 8 9 9 9
5 4 5 4 4 5 6 6 6 5 5 5 5 5 5 4 4 4 4 3 3 3 3 2 3 3 3 3 4 4 4 5 5 5 5 6 7 8 8 8 9 9 9
5 4 4 4 4 4 5 5 4 4 4 4 5 5 4 4 4 4 4 4 3 3 3 3 3 3 4 4 4 4 5 5 5 6 6 6 7 8 8 9 10 10 10
7 5 4 4 4 4 4 3 3 4 4 4 4 4 4 4 4 4 4 4 3 3 3 3 3 4 4 5 5 5 5 5 5 5 6 7 7 8 9 10 10 11 11
8 6 6 5 5 4 4 3 3 4 4 4 4 4 4 4 4 4 4 4 3 3 3 3 4 5 5 5 5 5 5 5 6 6 7 7 8 9 10 10 11 11 12
8 9 7 6 6 6 5 5 5 5 5 6 5 5 5 6 5 5 5 4 4 3 3 4 5 5 5 5 5 5 5 6 7 7 8 9 10 10 11 12 12 13 13
9 10 9 9 8 8 7 7 7 8 8 8 7 7 7 7 7 6 6 5 4 4 5 5 5 6 6 6 6 7 7 8 8 9 9 10 11 12 12 13 14 14 15
11 11 11 10 10 9 9 9 9 10 10 9 9 10 9 9 8 7 7 7 6 6 6 7 7 7 8 8 8 9 9 10 10 11 12 13 13 14 15 15 15 15 16
12 10 10 10 10 10 10 11 11 12 11 11 11 12 11 10 9 9 9 9 9 9 8 9 9 9 9 10 11 11 11 12 12 13 14 15 15 16 16 16 17 17 18
13 10 10 10 11 11 12 13 13 13 13 12 12 12 11 11 11 11 11 11 11 11 11 11 11 11 11 12 12 13 13 13 14 15 16 17 17 17 18 18 18 19 19
14 13 12 13 13 14 14 14 14 14 14 13 13 13 13 14 14 14 14 13 14 14 13 13 13 13 14 14 14 14 14 15 16 17 17 18 19 19 19 19 20 21 21
15 15 14 15 15 15 15 15 15 15 15 14 14 14 14 14 13 14 16 16 16 16 16 16 16 16 16 16 16 16 17 17 18 18 19 20 20 21 21 21 22 22 23
17 17 16 17 17 16 16 16 16 16 15 15 15 15 15 15 15 15 16 16 17 17 17 18 18 18 19 19 19 18 18 19 19 20 21 22 22 22 23 23 23 24 24
19 19 19 19 19 18 18 18 17 17 16 16 16 15 15 15 16 17 17 18 19 20 19 20 20 21 21 21 21 21 21 21 21 22 23 23 24 24 24 23 24 24 24
23 22 21 20 20 20 20 19 19 18 17 16 16 17 17 17 18 18 18 19 20 21 21 21 22 22 23 23 23 23 23 22 23 23 24 24 25 25 25 25 25 25 26
25 24 23 23 22 22 21 21 20 19 19 19 18 18 18 18 19 19 19 20 20 20 21 22 22 23 24 24 25 24 24 24 25 25 26 26 26 27 27 27 27 27 27
27 26 26 25 24 23 23 23 22 21 21 21 21 20 20 21 21 21 21 21 21 21 21 22 22 23 24 25 26 26 26 26 27 27 27 27 27 28 28 28 28 28 28
30 29 27 26 25 25 25 25 25 24 23 23 23 23 22 22 22 21 21 22 22 22 22 23 24 25 26 27 27 28 28 28 28 28 28 28 29 30 30 29 30 30 30
30 30 29 28 27 26 26 25 25 25 25 24 24 24 24 23 23 24 24 24 24 24 25 26 27 27 27 28 29 30 30 30 30 30 29 29 31 32 32 32 32 32 32
32 31 31 29 28 28 27 27 26 26 26 25 24 24 24 25 25 25 25 25 26 26 27 28 28 28 29 29 30 30 31 31 31 31 30 31 32 32 33 33 33 33 33
Wind_Direction
46 48 50 48 50 55 59 61 61 67 73 77 77 75 73 77 90 100 105 114 119 121 120 122 115 113 118 113 94 143 255 295 315 315 309 304 304 291 291 290 293 294 292
37 41 46 47 48 53 55 56 60 66 71 73 72 71 73 75 81 91 102 105 109 106 100 98 96 83 78 69 49 28 322 309 298 302 308 311 311 307 300 297 297 297 297
36 36 40 44 45 49 52 53 57 63 68 70 68 67 72 77 82 82 84 85 94 86 81 85 84 77 71 61 47 15 1 353 334 320 318 315 319 319 315 312 311 311 308
33 35 37 38 38 39 47 52 55 58 58 61 64 65 67 77 76 78 80 78 74 75 75 77 79 73 60 43 28 11 1 0 357 343 337 334 328 325 321 322 323 320 315
28 33 30 29 31 32 34 44 52 56 56 56 59 61 68 70 63 61 68 70 65 56 58 54 44 42 42 31 13 358 350 349 347 341 333 333 331 327 325 323 318 316 315
8 20 18 16 21 25 31 40 49 56 52 49 52 53 64 68 57 54 51 53 50 46 45 49 46 41 36 23 15 4 349 347 343 338 332 329 331 331 327 321 317 313 311
345 353 5 8 8 15 25 29 38 45 42 43 42 46 55 58 56 50 36 40 45 43 41 41 30 15 3 11 7 355 346 341 338 332 326 325 326 327 325 321 317 311 308
321 330 343 353 0 9 9 14 24 28 30 32 34 34 39 40 37 34 26 25 26 29 33 27 17 10 3 1 355 347 340 334 332 329 323 320 320 321 324 323 319 314 309
304 305 318 326 335 340 345 354 8 15 19 21 24 23 20 16 13 13 12 20 21 21 15 6 358 355 348 340 337 330 327 327 332 330 327 325 321 322 323 323 321 316 310
300 285 295 305 314 325 329 333 349 359 354 356 3 5 3 0 358 355 357 359 5 10 6 357 356 350 345 339 328 322 321 326 329 331 329 325 323 323 320 320 319 316 311
296 296 292 295 301 308 311 308 319 329 328 326 332 330 329 329 336 335 334 338 341 347 356 3 3 356 346 339 338 334 322 319 322 323 324 324 322 322 318 316 315 313 310
296 298 290 285 287 290 289 289 297 300 302 298 297 304 308 306 310 317 316 317 324 328 342 348 346 343 340 336 334 333 329 320 319 321 322 321 319 318 316 314 313 310 308
289 288 290 291 284 283 282 284 284 285 292 291 290 291 294 294 294 306 309 301 304 310 316 323 324 323 321 320 318 319 318 315 312 314 318 320 320 317 315 314 313 311 309
282 285 286 286 280 276 278 281 282 285 285 285 286 283 281 283 281 290 298 297 296 300 299 302 305 309 307 306 307 309 310 310 310 311 312 315 317 319 318 316 314 314 313
276 274 279 283 276 274 278 279 281 286 291 293 289 282 282 279 272 276 285 286 288 290 290 291 295 300 305 306 305 305 306 307 307 307 308 310 312 314 314 314 313 312 312
274 266 271 276 273 274 278 282 284 286 287 288 291 282 290 288 280 274 280 280 282 284 286 286 288 294 299 302 302 302 303 302 303 303 304 306 308 309 309 311 312 313 312
270 268 273 272 272 274 278 283 285 285 286 285 286 286 287 287 282 278 278 276 277 279 281 282 284 288 290 294 297 297 298 299 299 301 302 303 304 306 307 308 309 310 310
273 273 270 273 274 276 279 283 285 285 286 288 287 288 285 282 279 277 276 274 273 275 276 278 279 281 286 289 291 292 294 296 297 298 300 301 302 303 304 305 305 306 307
266 271 271 271 274 277 280 282 281 282 283 285 287 289 286 284 280 278 277 276 274 273 273 275 278 281 284 287 288 289 290 292 294 296 298 299 301 302 303 304 305 306 305
264 267 269 270 271 272 274 274 274 277 280 279 282 286 286 285 285 283 280 279 277 274 273 275 277 280 283 285 286 287 288 290 292 293 296 299 301 301 302 303 304 306 306
262 263 264 266 267 268 268 269 270 273 276 276 277 280 284 287 287 287 285 281 279 275 275 276 278 281 284 286 288 288 288 289 291 292 294 297 300 301 301 301 303 304 304
260 261 262 263 264 266 268 270 269 270 271 274 277 278 282 284 285 286 287 286 285 283 281 281 282 283 285 285 288 290 291 290 292 292 293 295 296 298 299 299 299 300 301
261 260 261 263 262 263 267 269 269 268 269 271 274 277 280 281 282 283 283 284 283 284 286 287 287 287 289 288 288 290 290 290 290 291 292 293 294 295 295 296 297 298 298
261 260 261 263 263 263 264 267 268 267 267 270 273 275 278 281 282 282 282 283 284 284 286 287 288 288 289 291 289 290 290 289 289 290 290 291 293 294 295 295 295 296 296
258 259 261 263 264 264 264 265 267 269 269 269 271 273 274 277 280 281 283 285 285 286 286 286 286 287 288 290 292 291 289 289 290 290 290 290 291 293 294 294 294 294 294
257 258 260 261 262 262 264 264 266 268 270 270 271 272 275 277 279 281 282 283 284 286 288 287 287 287 288 289 290 291 291 290 289 289 290 292 292 292 292 292 292 292 293
Height
5907 5906 5904 5903 5901 5900 5898 5897 5896 5895 5894 5894 5893 5893 5892 5892 5891 5891 5890 5890 5891 5891 5890 5891 5891 5891 5891 5891 5891 5891 5891 5891 5891 5890 5889 5889 5888 5888 5887 5886 5885 5884 5883
5909 5907 5906 5904 5903 5901 5900 5899 5898 5897 5896 5895 5895 5894 5893 5893 5892 5892 5892 5892 5891 5891 5891 5892 5892 5892 5891 5891 5891 5890 5890 5890 5890 5889 5889 5888 5888 5887 5886 5885 5884 5882 5882
5910 5909 5907 5906 5904 5903 5902 5900 5899 5898 5897 5897 5896 5895 5895 5894 5894 5893 5893 5892 5892 5892 5892 5892 5892 5892 5891 5891 5890 5890 5890 5889 5889 5888 5888 5887 5886 5885 5885 5883 5882 5881 5880
5911 5910 5909 5907 5906 5905 5903 5902 5900 5899 5898 5898 5897 5896 5896 5895 5895 5894 5893 5893 5893 5892 5892 5892 5892 5892 5891 5891 5890 5890 5889 5889 5888 5887 5887 5886 5885 5884 5883 5882 5881 5880 5879
5911 5910 5910 5909 5907 5906 5904 5903 5901 5900 5900 5898 5897 5897 5896 5896 5896 5895 5894 5894 5893 5893 5892 5892 5892 5891 5890 5890 5889 5889 5888 5888 5887 5886 5886 5885 5884 5883 5882 5881 5880 5879 5877
5911 5911 5910 5909 5908 5907 5905 5903 5902 5901 5900 5899 5897 5897 5897 5897 5896 5895 5894 5894 5893 5893 5892 5891 5891 5890 5890 5889 5888 5888 5887 5887 5886 5885 5884 5883 5882 5881 5880 5879 5878 5877 5875
5911 5910 5910 5909 5908 5906 5905 5904 5903 5902 5901 5900 5899 5898 5898 5897 5896 5895 5894 5893 5893 5892 5892 5891 5890 5890 5889 5888 5887 5887 5886 5885 5885 5884 5883 5882 5881 5880 5878 5877 5876 5875 5873
5910 5909 5908 5908 5907 5906 5905 5904 5903 5902 5901 5900 5899 5898 5898 5897 5896 5895 5894 5893 5893 5892 5891 5890 5890 5889 5888 5887 5886 5886 5885 5884 5883 5882 5881 5880 5879 5878 5876 5875 5874 5872 5871
5908 5908 5907 5907 5906 5905 5905 5904 5903 5902 5901 5900 5899 5898 5897 5897 5896 5895 5894 5893 5892 5891 5890 5890 5889 5888 5887 5886 5885 5885 5884 5883 5882 5881 5880 5878 5877 5876 5874 5873 5872 5870 5868
5906 5906 5906 5906 5905 5904 5904 5903 5902 5901 5900 5900 5899 5898 5897 5896 5895 5894 5893 5893 5892 5890 5889 5889 5888 5887 5886 5885 5884 5883 5882 5881 5880 5879 5878 5877 5875 5874 5872 5871 5869 5867 5866
5903 5903 5904 5904 5903 5902 5902 5902 5901 5900 5899 5898 5897 5897 5896 5895 5894 5893 5892 5892 5891 5890 5889 5888 5887 5886 5885 5884 5883 5882 5881 5880 5879 5877 5876 5875 5873 5871 5870 5868 5866 5864 5863
5901 5900 5901 5901 5901 5901 5900 5900 5899 5899 5898 5896 5895 5895 5894 5894 5893 5892 5891 5890 5890 5889 5888 5887 5886 5885 5884 5883 5882 5881 5879 5878 5877 5876 5874 5873 5871 5869 5867 5865 5863 5861 5859
5897 5897 5897 5898 5898 5898 5898 5897 5897 5896 5895 5894 5893 5892 5892 5891 5891 5890 5889 5889 5888 5887 5886 5886 5885 5884 5883 5882 5880 5879 5878 5877 5875 5874 5872 5870 5868 5866 5864 5862 5860 5858 5856
5893 5894 5894 5894 5895 5895 5895 5895 5894 5893 5892 5891 5890 5889 5889 5888 5888 5888 5887 5887 5886 5885 5884 5884 5883 5882 5881 5880 5878 5877 5876 5874 5873 5871 5869 5867 5865 5863 5861 5859 5857 5854 5852
5889 5889 5890 5891 5891 5892 5892 5891 5890 5890 5889 5888 5887 5886 5885 5885 5885 5884 5884 5884 5883 5883 5882 5881 5880 5879 5878 5877 5876 5874 5873 5872 5870 5868 5866 5864 5862 5860 5858 5855 5853 5851 5848
5885 5885 5886 5887 5887 5888 5888 5887 5887 5886 5885 5884 5883 5882 5882 5882 5881 5881 5881 5880 5880 5879 5879 5878 5877 5876 5875 5874 5872 5871 5870 5868 5867 5865 5863 5861 5858 5856 5854 5851 5849 5847 5844
5881 5881 5882 5883 5883 5884 5884 5883 5883 5882 5881 5880 5879 5879 5878 5878 5877 5877 5877 5876 5876 5875 5875 5874 5873 5872 5871 5870 5869 5867 5866 5864 5862 5860 5858 5856 5854 5852 5849 5847 5844 5842 5839
5877 5878 5878 5878 5878 5879 5879 5879 5878 5877 5877 5876 5875 5875 5874 5873 5872 5872 5872 5871 5871 5870 5870 5869 5868 5868 5867 5865 5864 5862 5861 5859 5858 5855 5853 5851 5849 5846 5844 5842 5839 5837 5834
5872 5874 5874 5874 5873 5873 5873 5874 5873 5873 5872 5872 5871 5870 5870 5869 5868 5868 5867 5866 5866 5865 5865 5864 5863 5862 5861 5860 5858 5857 5855 5854 5852 5850 5848 5846 5843 5841 5838 5836 5833 5831 5828
5867 5868 5869 5869 5869 5869 5868 5868 5868 5868 5868 5867 5866 5865 5865 5864 5863 5863 5862 5861 5861 5860 5859 5858 5858 5857 5855 5854 5852 5851 5849 5848 5846 5844 5842 5840 5838 5835 5832 5830 5827 5824 5821
5860 5861 5862 5862 5863 5863 5863 5863 5863 5862 5862 5862 5861 5860 5860 5859 5858 5857 5856 5855 5854 5853 5853 5852 5851 5850 5849 5848 5846 5844 5843 5841 5839 5837 5835 5833 5831 5828 5826 5823 5820 5817 5814
5853 5854 5855 5856 5856 5857 5857 5857 5856 5856 5856 5855 5855 5855 5854 5853 5853 5852 5851 5850 5849 5848 5847 5846 5844 5844 5842 5841 5839 5837 5835 5834 5832 5830 5828 5826 5824 5821 5818 5816 5813 5810 5807
5846 5847 5848 5848 5848 5849 5850 5850 5849 5849 5849 5849 5849 5848 5848 5847 5847 5846 5845 5844 5843 5842 5841 5840 5838 5837 5836 5834 5832 5830 5828 5826 5824 5822 5820 5818 5815 5813 5810 5808 5805 5802 5799
5838 5839 5840 5840 5841 5842 5842 5842 5842 5841 5842 5842 5842 5842 5841 5841 5840 5839 5838 5838 5836 5835 5834 5833 5831 5830 5828 5826 5824 5822 5820 5818 5816 5814 5811 5809 5807 5804 5802 5799 5796 5793 5790
5830 5831 5832 5833 5834 5834 5834 5834 5834 5834 5835 5835 5835 5835 5834 5834 5833 5832 5831 5830 5829 5828 5827 5825 5824 5822 5821 5819 5816 5813 5811 5809 5807 5805 5802 5800 5798 5795 5793 5789 5787 5784 5781
5821 5823 5824 5825 5826 5826 5827 5827 5827 5827 5827 5828 5828 5828 5827 5827 5826 5825 5824 5823 5822 5820 5819 5817 5816 5814 5812 5810 5807 5805 5802 5800 5798 5796 5793 5791 5788 5786 5783 5780 5777 5774 5771